• In Austria
  • List of Countries
  • For 7 days
  • Water Temperature
  • Satellite Maps
  • Weather Map
  • News
  • Weather Widgets
  • user-avatar
    Login

    Hourly Weather Biatris

    Today, 24 September, Monday

    Time Temperature Precipitation Wind Pressure Humidity
    00:00 +17°C° 0 mm 3 mps 654 mmHg 46%
    01:00 +17°C° 0 mm 3 mps 654 mmHg 51%
    02:00 +16°C° 0 mm 3 mps 654 mmHg 56%
    03:00 +16°C° 0 mm 2 mps 654 mmHg 57%
    04:00 +15°C° 0 mm 2 mps 654 mmHg 59%
    05:00 +15°C° 0 mm 2 mps 654 mmHg 60%
    06:00 +17°C° 0 mm 3 mps 654 mmHg 53%
    07:00 +20°C° 0 mm 3 mps 655 mmHg 46%
    08:00 +22°C° 0 mm 3 mps 656 mmHg 40%
    09:00 +26°C° 0 mm 3 mps 656 mmHg 33%
    10:00 +28°C° 0 mm 3 mps 657 mmHg 26%
    11:00 +30°C° 0 mm 3 mps 657 mmHg 19%
    12:00 +31°C° 0 mm 3 mps 656 mmHg 18%
    13:00 +33°C° 0 mm 3 mps 656 mmHg 16%
    14:00 +34°C° 0 mm 3 mps 655 mmHg 15%
    15:00 +33°C° 0 mm 3 mps 655 mmHg 16%
    16:00 +33°C° 0 mm 4 mps 654 mmHg 17%
    17:00 +32°C° 0 mm 4 mps 654 mmHg 18%
    18:00 +29°C° 0 mm 3 mps 654 mmHg 22%
    19:00 +26°C° 0 mm 3 mps 654 mmHg 27%
    20:00 +24°C° 0 mm 2 mps 654 mmHg 31%
    21:00 +22°C° 0 mm 3 mps 654 mmHg 35%
    22:00 +22°C° 0 mm 3 mps 654 mmHg 38%
    23:00 +21°C° 0 mm 3 mps 655 mmHg 41%

    Tomorrow, 25 September, Tuesday

    Time Temperature Precipitation Wind Pressure Humidity
    00:00 +21°C° 0 mm 3 mps 654 mmHg 44%
    01:00 +20°C° 0 mm 3 mps 654 mmHg 46%
    02:00 +19°C° 0 mm 3 mps 654 mmHg 49%
    03:00 +19°C° 0 mm 3 mps 654 mmHg 51%
    04:00 +18°C° 0 mm 3 mps 654 mmHg 52%
    05:00 +18°C° 0 mm 3 mps 654 mmHg 54%
    06:00 +20°C° 0 mm 4 mps 654 mmHg 48%
    07:00 +22°C° 0 mm 4 mps 655 mmHg 42%
    08:00 +25°C° 0 mm 5 mps 656 mmHg 37%
    09:00 +27°C° 0 mm 4 mps 656 mmHg 31%
    10:00 +30°C° 0 mm 4 mps 656 mmHg 25%
    11:00 +33°C° 0 mm 3 mps 657 mmHg 19%
    12:00 +33°C° 0 mm 3 mps 656 mmHg 18%
    13:00 +34°C° 0 mm 3 mps 655 mmHg 16%
    14:00 +35°C° 0 mm 3 mps 655 mmHg 15%
    15:00 +34°C° 0 mm 3 mps 654 mmHg 16%
    16:00 +34°C° 0 mm 3 mps 654 mmHg 17%
    17:00 +33°C° 0 mm 4 mps 653 mmHg 18%
    18:00 +30°C° 0 mm 3 mps 653 mmHg 22%
    19:00 +28°C° 0 mm 3 mps 653 mmHg 26%
    20:00 +26°C° 0 mm 3 mps 654 mmHg 30%
    21:00 +25°C° 0 mm 3 mps 654 mmHg 32%
    22:00 +23°C° 0 mm 4 mps 654 mmHg 34%
    23:00 +23°C° 0 mm 4 mps 654 mmHg 35%

    Day after tomorrow, 26 September, Wednesday

    Time Temperature Precipitation Wind Pressure Humidity
    00:00 +22°C° 0 mm 4 mps 654 mmHg 37%
    01:00 +22°C° 0 mm 3 mps 653 mmHg 38%
    02:00 +21°C° 0 mm 3 mps 653 mmHg 40%
    03:00 +21°C° 0 mm 4 mps 653 mmHg 41%
    04:00 +21°C° 0 mm 4 mps 653 mmHg 43%
    05:00 +21°C° 0 mm 4 mps 653 mmHg 44%
    06:00 +23°C° 0 mm 5 mps 654 mmHg 40%
    07:00 +26°C° 0 mm 5 mps 655 mmHg 36%
    08:00 +28°C° 0 mm 6 mps 656 mmHg 32%
    09:00 +30°C° 0 mm 5 mps 656 mmHg 27%
    10:00 +33°C° 0 mm 4 mps 656 mmHg 22%
    11:00 +35°C° 0 mm 3 mps 656 mmHg 17%
    12:00 +36°C° 0 mm 2 mps 656 mmHg 16%
    13:00 +36°C° 0 mm 2 mps 655 mmHg 15%
    14:00 +37°C° 0 mm 2 mps 654 mmHg 14%
    15:00 +36°C° 0 mm 2 mps 654 mmHg 15%
    16:00 +34°C° 0 mm 2 mps 654 mmHg 17%
    17:00 +32°C° 0 mm 2 mps 653 mmHg 18%
    18:00 +31°C° 0 mm 2 mps 653 mmHg 21%
    19:00 +30°C° 0 mm 2 mps 654 mmHg 23%
    20:00 +28°C° 0 mm 2 mps 654 mmHg 26%
    21:00 +27°C° 0 mm 2 mps 654 mmHg 28%
    22:00 +26°C° 0 mm 3 mps 654 mmHg 31%
    23:00 +25°C° 0 mm 3 mps 654 mmHg 33%

    27 September, Thursday

    Time Temperature Precipitation Wind Pressure Humidity
    00:00 +25°C° 0 mm 3 mps 654 mmHg 35%
    01:00 +24°C° 0 mm 3 mps 653 mmHg 37%
    02:00 +22°C° 0 mm 3 mps 653 mmHg 38%
    03:00 +23°C° 0 mm 2 mps 653 mmHg 40%
    04:00 +21°C° 0 mm 2 mps 653 mmHg 41%
    05:00 +21°C° 0 mm 2 mps 653 mmHg 43%
    06:00 +24°C° 0 mm 3 mps 654 mmHg 38%
    07:00 +26°C° 0 mm 4 mps 655 mmHg 34%
    08:00 +29°C° 0 mm 4 mps 656 mmHg 29%
    09:00 +30°C° 0 mm 4 mps 656 mmHg 25%
    10:00 +33°C° 0 mm 4 mps 656 mmHg 21%
    11:00 +35°C° 0 mm 4 mps 656 mmHg 17%
    12:00 +35°C° 0 mm 4 mps 656 mmHg 16%
    13:00 +36°C° 0 mm 4 mps 655 mmHg 16%
    14:00 +36°C° 0 mm 4 mps 654 mmHg 15%
    15:00 +35°C° 0 mm 4 mps 654 mmHg 17%
    16:00 +34°C° 0 mm 4 mps 654 mmHg 19%
    17:00 +33°C° 0 mm 3 mps 653 mmHg 21%
    18:00 +30°C° 0 mm 3 mps 654 mmHg 25%
    19:00 +29°C° 0 mm 3 mps 654 mmHg 28%
    20:00 +27°C° 0 mm 3 mps 654 mmHg 31%
    21:00 +26°C° 0 mm 3 mps 654 mmHg 34%
    22:00 +25°C° 0 mm 4 mps 654 mmHg 36%
    23:00 +25°C° 0 mm 4 mps 654 mmHg 38%

    28 September, Friday

    Time Temperature Precipitation Wind Pressure Humidity
    00:00 +23°C° 0 mm 4 mps 654 mmHg 40%
    01:00 +22°C° 0 mm 3 mps 653 mmHg 42%
    02:00 +21°C° 0 mm 3 mps 653 mmHg 44%
    03:00 +21°C° 0 mm 3 mps 653 mmHg 46%
    04:00 +20°C° 0 mm 3 mps 653 mmHg 47%
    05:00 +20°C° 0 mm 3 mps 653 mmHg 48%
    06:00 +22°C° 0 mm 4 mps 654 mmHg 41%
    07:00 +25°C° 0 mm 4 mps 655 mmHg 34%
    08:00 +27°C° 0 mm 5 mps 656 mmHg 27%
    09:00 +29°C° 0 mm 4 mps 656 mmHg 23%
    10:00 +31°C° 0 mm 3 mps 656 mmHg 19%
    11:00 +34°C° 0 mm 3 mps 656 mmHg 15%
    12:00 +35°C° 0 mm 3 mps 656 mmHg 14%
    13:00 +36°C° 0 mm 2 mps 655 mmHg 12%
    14:00 +37°C° 0 mm 2 mps 654 mmHg 11%
    15:00 +36°C° 0 mm 3 mps 654 mmHg 12%
    16:00 +35°C° 0 mm 3 mps 654 mmHg 12%
    17:00 +34°C° 0 mm 3 mps 654 mmHg 13%
    18:00 +31°C° 0 mm 3 mps 654 mmHg 18%
    19:00 +29°C° 0 mm 3 mps 654 mmHg 22%
    20:00 +27°C° 0 mm 3 mps 654 mmHg 27%
    21:00 +26°C° 0 mm 3 mps 654 mmHg 30%
    22:00 +25°C° 0 mm 4 mps 654 mmHg 34%
    23:00 +23°C° 0 mm 4 mps 654 mmHg 37%

    29 September, Saturday

    Time Temperature Precipitation Wind Pressure Humidity
    00:00 +24°C° 0 mm 3 mps 653 mmHg 40%
    01:00 +22°C° 0 mm 3 mps 653 mmHg 43%
    02:00 +21°C° 0 mm 3 mps 653 mmHg 45%
    03:00 +21°C° 0 mm 3 mps 653 mmHg 48%
    04:00 +20°C° 0 mm 3 mps 653 mmHg 50%
    05:00 +19°C° 0 mm 3 mps 653 mmHg 52%
    06:00 +22°C° 0 mm 3 mps 655 mmHg 46%
    07:00 +25°C° 0 mm 4 mps 656 mmHg 40%
    08:00 +27°C° 0 mm 5 mps 657 mmHg 34%
    09:00 +28°C° 0 mm 5 mps 657 mmHg 31%
    10:00 +30°C° 0 mm 5 mps 657 mmHg 27%
    11:00 +32°C° 0 mm 5 mps 657 mmHg 24%
    12:00 +32°C° 0 mm 5 mps 657 mmHg 24%
    13:00 +30°C° 0 mm 5 mps 656 mmHg 24%
    14:00 +30°C° 0 mm 5 mps 656 mmHg 25%
    15:00 +30°C° 0 mm 5 mps 656 mmHg 26%
    16:00 +29°C° 0 mm 6 mps 656 mmHg 28%
    17:00 +28°C° 0 mm 6 mps 656 mmHg 30%
    18:00 +26°C° 0 mm 6 mps 656 mmHg 36%
    19:00 +24°C° 0 mm 6 mps 657 mmHg 42%
    20:00 +22°C° 0 mm 6 mps 657 mmHg 48%
    21:00 +22°C° 0 mm 5 mps 657 mmHg 50%
    22:00 +21°C° 0 mm 5 mps 657 mmHg 52%
    23:00 +20°C° 0 mm 5 mps 657 mmHg 55%
    Show more

    3.3.7123123